Location: East Meadow
(40.7140°N, 73.5590°W)
Time: 20:25:41
(UTC+00:00)

FREGAT/IRIS - Pass Details

Date: 05 April 2020
Orbit: 326 x 331 km, 96.9° (Epoch: 06 June)

Event Time Altitude Azimuth Distance (km) Brightness Sun altitude
Exits shadow 23:48:15 - 130° (SE) 1,659 5.2 -5.4°
Reaches altitude 10° 23:49:21 10° 117° (ESE) 1,274 4.6 -5.6°
Maximum altitude 23:51:17 18° 71° (ENE) 924 4.0 -5.9°
Drops below altitude 10° 23:53:16 10° 25° (NNE) 1,289 5.1 -6.3°
Sets 23:55:32 0° 5° (N) 2,138 6.5 -6.7°
